Location: Voyageurs National Park
(48.5020°N, 92.9292°W)
Time: 16:24:37
(UTC-05:00)

PCSat - Visible Passes

Search period start: 24 April 2014 00:00
Search period end: 04 May 2014 00:00
Orbit: 787 x 795 km, 67.1° (Epoch: 23 April)

Date Brightness Start Highest point End Pass type
(mag) Time Alt. Az. Time Alt. Az. Time Alt. Az.
24 Apr 10.4 01:36:44 40° WNW 01:37:41 43° NW 01:42:52 10° NNE visible
24 Apr 12.0 03:19:30 10° WNW 03:22:34 15° NNW 03:25:39 10° NNE visible
24 Apr 12.4 05:07:16 10° N 05:08:30 11° N 05:09:44 10° NNE visible
24 Apr 11.0 23:25:43 24° ENE 23:25:43 24° ENE 23:28:31 10° NE visible
25 Apr 10.0 01:06:25 51° WNW 01:07:04 55° NW 01:12:25 10° NNE visible
25 Apr 11.9 02:48:13 10° WNW 02:51:43 17° NNW 02:55:15 10° NNE visible
25 Apr 12.4 04:36:29 10° NNW 04:37:33 11° N 04:38:38 10° NNE visible
25 Apr 11.2 22:55:19 19° E 22:55:19 19° E 22:57:38 10° ENE visible
26 Apr 9.7 00:36:00 65° W 00:36:29 70° NW 00:41:56 10° NNE visible
26 Apr 11.8 02:17:00 10° WNW 02:20:55 20° NNW 02:24:50 10° NNE visible
26 Apr 12.4 04:05:25 10° NNW 04:06:37 11° N 04:07:49 10° N visible
26 Apr 11.4 22:24:48 15° E 22:24:48 15° E 22:26:32 10° ENE visible
27 Apr 9.4 00:05:28 75° SW 00:05:57 88° NW 00:11:25 10° NE visible
27 Apr 11.6 01:46:08 11° W 01:50:08 23° NW 01:54:26 10° NNE visible
27 Apr 12.4 03:34:08 10° NNW 03:35:41 11° N 03:37:14 10° N visible
27 Apr 12.3 05:19:00 10° N 05:21:40 14° NNE 05:24:19 10° NE visible
27 Apr 11.5 21:54:07 11° E 21:54:07 11° E 21:54:54 10° E visible
27 Apr 9.4 23:34:46 64° S 23:35:27 72° ESE 23:40:52 10° NE visible
28 Apr 11.4 01:15:26 13° W 01:19:23 27° NW 01:24:01 10° NNE visible
28 Apr 12.3 03:02:46 10° NW 03:04:46 12° NNW 03:06:45 10° N visible
28 Apr 12.4 04:48:35 10° N 04:50:46 12° NNE 04:52:57 10° NE visible
28 Apr 9.6 23:03:50 46° SSE 23:04:59 55° ESE 23:10:17 10° NE visible
29 Apr 11.1 00:44:28 13° WSW 00:48:41 33° NW 00:53:36 10° NNE visible
29 Apr 12.3 02:31:23 10° NW 02:33:51 13° NNW 02:36:19 10° N visible
29 Apr 12.5 04:18:07 10° N 04:19:51 11° N 04:21:34 10° NNE visible
29 Apr 9.9 22:32:32 30° SSE 22:34:33 41° ESE 22:39:38 10° NE visible
30 Apr 10.7 00:13:08 11° WSW 00:18:01 41° NW 00:23:09 10° NNE visible
30 Apr 12.3 02:00:02 10° NW 02:02:58 14° NNW 02:05:54 10° NNE visible
30 Apr 12.6 03:47:35 10° N 03:48:55 11° N 03:50:15 10° NNE visible
30 Apr 10.3 22:00:30 15° SSE 22:04:10 31° ESE 22:08:54 10° NE visible
30 Apr 10.4 23:42:07 10° SW 23:47:23 51° NW 23:52:42 10° NNE visible
01 May 12.2 01:28:44 10° WNW 01:32:07 16° NNW 01:35:30 10° NNE visible
01 May 12.7 03:16:53 10° N 03:17:59 11° N 03:19:04 10° NNE visible
01 May 12.3 05:00:04 10° NNW 05:03:45 18° NNE 05:07:26 10° ENE visible
01 May 10.6 21:29:35 10° SSE 21:33:49 24° ESE 21:38:04 10° ENE visible
01 May 9.9 23:11:25 10° SW 23:16:48 65° NW 23:22:13 10° NNE visible
02 May 12.1 00:57:30 10° WNW 01:01:17 19° NNW 01:05:06 10° NNE visible
02 May 12.7 02:45:54 10° NNW 02:47:02 11° N 02:48:10 10° N visible
02 May 12.4 04:29:40 10° NNW 04:32:55 16° NNE 04:36:10 10° ENE visible
02 May 10.9 20:59:58 10° SSE 21:03:29 18° ESE 21:07:02 10° ENE visible
02 May 9.6 22:40:49 10° SW 22:46:14 82° NW 22:51:42 10° NNE visible
03 May 11.9 00:26:19 10° W 00:30:30 22° NNW 00:34:41 10° NNE visible
03 May 12.7 02:14:39 10° NNW 02:16:05 11° N 02:17:32 10° N visible
03 May 12.5 03:59:15 10° NNW 04:02:03 14° NNE 04:04:51 10° NE visible
03 May 9.5 22:10:19 10° SSW 22:15:43 78° ESE 22:21:10 10° NE visible
03 May 11.7 23:55:14 10° W 23:59:44 26° NW 00:00:00 26° NNW visible
